Location: Arthurs Seat
(13.1500°N, 59.6000°W)
Time: 14:12:25
(UTC+00:00)

Meteor 2-19 Rocket - Pass Details

Date: 25 August 2019
Orbit: 936 x 959 km, 82.5° (Epoch: 22 September)

Event Time Altitude Azimuth Distance (km) Brightness Sun altitude
Rises 23:34:17 0° 2° (N) 3,607 7.7 -19.8°
Reaches altitude 10° 23:36:50 10° 6° (N) 2,659 6.9 -20.4°
Maximum altitude 23:42:48 59° 85° (E) 1,081 4.4 -21.8°
Enters shadow 23:45:11 35° 147° (SSE) 1,457 5.0 -22.4°
